Index of /20260420/WXO-DD/model_gdps/15km/12/147
Name Last modified Size Description
Parent Directory -
20260420T12Z_MSC_GDPS_AirTemp_AGL-120m_LatLon0.15_PT147H.grib2 2026-04-20 16:32 915K
20260420T12Z_MSC_GDPS_AirTemp_AGL-2m_LatLon0.15_PT147H.grib2 2026-04-20 16:32 1.0M
20260420T12Z_MSC_GDPS_AirTemp_AGL-40m_LatLon0.15_PT147H.grib2 2026-04-20 16:32 819K
20260420T12Z_MSC_GDPS_AirTemp_AGL-80m_LatLon0.15_PT147H.grib2 2026-04-20 16:32 808K
20260420T12Z_MSC_GDPS_AirTemp_IsbL-0001_LatLon0.15_PT147H.grib2 2026-04-20 16:32 642K
20260420T12Z_MSC_GDPS_AirTemp_IsbL-0005_LatLon0.15_PT147H.grib2 2026-04-20 16:32 750K
20260420T12Z_MSC_GDPS_AirTemp_IsbL-0010_LatLon0.15_PT147H.grib2 2026-04-20 16:32 754K
20260420T12Z_MSC_GDPS_AirTemp_IsbL-0020_LatLon0.15_PT147H.grib2 2026-04-20 16:32 695K
20260420T12Z_MSC_GDPS_AirTemp_IsbL-0030_LatLon0.15_PT147H.grib2 2026-04-20 16:32 747K
20260420T12Z_MSC_GDPS_AirTemp_IsbL-0050_LatLon0.15_PT147H.grib2 2026-04-20 16:32 801K
20260420T12Z_MSC_GDPS_AirTemp_IsbL-0100_LatLon0.15_PT147H.grib2 2026-04-20 16:32 946K
20260420T12Z_MSC_GDPS_AirTemp_IsbL-0150_LatLon0.15_PT147H.grib2 2026-04-20 16:32 1.0M
20260420T12Z_MSC_GDPS_AirTemp_IsbL-0175_LatLon0.15_PT147H.grib2 2026-04-20 16:32 942K
20260420T12Z_MSC_GDPS_AirTemp_IsbL-0200_LatLon0.15_PT147H.grib2 2026-04-20 16:32 958K
20260420T12Z_MSC_GDPS_AirTemp_IsbL-0225_LatLon0.15_PT147H.grib2 2026-04-20 16:32 963K
20260420T12Z_MSC_GDPS_AirTemp_IsbL-0250_LatLon0.15_PT147H.grib2 2026-04-20 16:32 1.0M
20260420T12Z_MSC_GDPS_AirTemp_IsbL-0275_LatLon0.15_PT147H.grib2 2026-04-20 16:32 1.0M
20260420T12Z_MSC_GDPS_AirTemp_IsbL-0300_LatLon0.15_PT147H.grib2 2026-04-20 16:32 1.0M
20260420T12Z_MSC_GDPS_AirTemp_IsbL-0350_LatLon0.15_PT147H.grib2 2026-04-20 16:32 929K
20260420T12Z_MSC_GDPS_AirTemp_IsbL-0400_LatLon0.15_PT147H.grib2 2026-04-20 16:32 941K
20260420T12Z_MSC_GDPS_AirTemp_IsbL-0450_LatLon0.15_PT147H.grib2 2026-04-20 16:32 961K
20260420T12Z_MSC_GDPS_AirTemp_IsbL-0500_LatLon0.15_PT147H.grib2 2026-04-20 16:32 1.0M
20260420T12Z_MSC_GDPS_AirTemp_IsbL-0550_LatLon0.15_PT147H.grib2 2026-04-20 16:32 1.0M
20260420T12Z_MSC_GDPS_AirTemp_IsbL-0600_LatLon0.15_PT147H.grib2 2026-04-20 16:32 896K
20260420T12Z_MSC_GDPS_AirTemp_IsbL-0650_LatLon0.15_PT147H.grib2 2026-04-20 16:32 921K
20260420T12Z_MSC_GDPS_AirTemp_IsbL-0700_LatLon0.15_PT147H.grib2 2026-04-20 16:32 960K
20260420T12Z_MSC_GDPS_AirTemp_IsbL-0750_LatLon0.15_PT147H.grib2 2026-04-20 16:32 1.0M
20260420T12Z_MSC_GDPS_AirTemp_IsbL-0800_LatLon0.15_PT147H.grib2 2026-04-20 16:32 1.1M
20260420T12Z_MSC_GDPS_AirTemp_IsbL-0850_LatLon0.15_PT147H.grib2 2026-04-20 16:32 1.1M
20260420T12Z_MSC_GDPS_AirTemp_IsbL-0875_LatLon0.15_PT147H.grib2 2026-04-20 16:32 1.2M
20260420T12Z_MSC_GDPS_AirTemp_IsbL-0900_LatLon0.15_PT147H.grib2 2026-04-20 16:32 1.1M
20260420T12Z_MSC_GDPS_AirTemp_IsbL-0925_LatLon0.15_PT147H.grib2 2026-04-20 16:32 1.1M
20260420T12Z_MSC_GDPS_AirTemp_IsbL-0950_LatLon0.15_PT147H.grib2 2026-04-20 16:32 1.2M
20260420T12Z_MSC_GDPS_AirTemp_IsbL-0970_LatLon0.15_PT147H.grib2 2026-04-20 16:32 1.2M
20260420T12Z_MSC_GDPS_AirTemp_IsbL-0985_LatLon0.15_PT147H.grib2 2026-04-20 16:32 1.2M
20260420T12Z_MSC_GDPS_AirTemp_IsbL-1000_LatLon0.15_PT147H.grib2 2026-04-20 16:32 1.1M
20260420T12Z_MSC_GDPS_AirTemp_IsbL-1015_LatLon0.15_PT147H.grib2 2026-04-20 16:32 1.1M
20260420T12Z_MSC_GDPS_Albedo_Sfc_LatLon0.15_PT147H.grib2 2026-04-20 16:32 247K
20260420T12Z_MSC_GDPS_CAPE_Sfc_LatLon0.15_PT147H.grib2 2026-04-20 16:32 4.1M
20260420T12Z_MSC_GDPS_CIN_Sfc_LatLon0.15_PT147H.grib2 2026-04-20 16:32 2.9M
20260420T12Z_MSC_GDPS_ConvectivePrecip-Accum_Sfc_LatLon0.15_PT147H.grib2 2026-04-20 16:32 3.6M
20260420T12Z_MSC_GDPS_DewPointDepression_AGL-2m_LatLon0.15_PT147H.grib2 2026-04-20 16:32 594K
20260420T12Z_MSC_GDPS_DewPointDepression_IsbL-0010_LatLon0.15_PT147H.grib2 2026-04-20 16:32 28K
20260420T12Z_MSC_GDPS_DewPointDepression_IsbL-0020_LatLon0.15_PT147H.grib2 2026-04-20 16:32 68K
20260420T12Z_MSC_GDPS_DewPointDepression_IsbL-0030_LatLon0.15_PT147H.grib2 2026-04-20 16:32 81K
20260420T12Z_MSC_GDPS_DewPointDepression_IsbL-0050_LatLon0.15_PT147H.grib2 2026-04-20 16:32 330K
20260420T12Z_MSC_GDPS_DewPointDepression_IsbL-0100_LatLon0.15_PT147H.grib2 2026-04-20 16:32 386K
20260420T12Z_MSC_GDPS_DewPointDepression_IsbL-0150_LatLon0.15_PT147H.grib2 2026-04-20 16:32 458K
20260420T12Z_MSC_GDPS_DewPointDepression_IsbL-0175_LatLon0.15_PT147H.grib2 2026-04-20 16:32 558K
20260420T12Z_MSC_GDPS_DewPointDepression_IsbL-0200_LatLon0.15_PT147H.grib2 2026-04-20 16:32 661K
20260420T12Z_MSC_GDPS_DewPointDepression_IsbL-0225_LatLon0.15_PT147H.grib2 2026-04-20 16:32 773K
20260420T12Z_MSC_GDPS_DewPointDepression_IsbL-0250_LatLon0.15_PT147H.grib2 2026-04-20 16:32 865K
20260420T12Z_MSC_GDPS_DewPointDepression_IsbL-0275_LatLon0.15_PT147H.grib2 2026-04-20 16:32 887K
20260420T12Z_MSC_GDPS_DewPointDepression_IsbL-0300_LatLon0.15_PT147H.grib2 2026-04-20 16:32 931K
20260420T12Z_MSC_GDPS_DewPointDepression_IsbL-0350_LatLon0.15_PT147H.grib2 2026-04-20 16:32 966K
20260420T12Z_MSC_GDPS_DewPointDepression_IsbL-0400_LatLon0.15_PT147H.grib2 2026-04-20 16:32 1.0M
20260420T12Z_MSC_GDPS_DewPointDepression_IsbL-0450_LatLon0.15_PT147H.grib2 2026-04-20 16:32 1.0M
20260420T12Z_MSC_GDPS_DewPointDepression_IsbL-0500_LatLon0.15_PT147H.grib2 2026-04-20 16:32 1.0M
20260420T12Z_MSC_GDPS_DewPointDepression_IsbL-0550_LatLon0.15_PT147H.grib2 2026-04-20 16:32 1.0M
20260420T12Z_MSC_GDPS_DewPointDepression_IsbL-0600_LatLon0.15_PT147H.grib2 2026-04-20 16:32 1.1M
20260420T12Z_MSC_GDPS_DewPointDepression_IsbL-0650_LatLon0.15_PT147H.grib2 2026-04-20 16:32 1.1M
20260420T12Z_MSC_GDPS_DewPointDepression_IsbL-0700_LatLon0.15_PT147H.grib2 2026-04-20 16:32 1.1M
20260420T12Z_MSC_GDPS_DewPointDepression_IsbL-0750_LatLon0.15_PT147H.grib2 2026-04-20 16:32 1.1M
20260420T12Z_MSC_GDPS_DewPointDepression_IsbL-0800_LatLon0.15_PT147H.grib2 2026-04-20 16:32 1.2M
20260420T12Z_MSC_GDPS_DewPointDepression_IsbL-0850_LatLon0.15_PT147H.grib2 2026-04-20 16:32 1.2M
20260420T12Z_MSC_GDPS_DewPointDepression_IsbL-0875_LatLon0.15_PT147H.grib2 2026-04-20 16:32 1.1M
20260420T12Z_MSC_GDPS_DewPointDepression_IsbL-0900_LatLon0.15_PT147H.grib2 2026-04-20 16:32 1.1M
20260420T12Z_MSC_GDPS_DewPointDepression_IsbL-0925_LatLon0.15_PT147H.grib2 2026-04-20 16:32 1.0M
20260420T12Z_MSC_GDPS_DewPointDepression_IsbL-0950_LatLon0.15_PT147H.grib2 2026-04-20 16:32 1.0M
20260420T12Z_MSC_GDPS_DewPointDepression_IsbL-0970_LatLon0.15_PT147H.grib2 2026-04-20 16:32 1.0M
20260420T12Z_MSC_GDPS_DewPointDepression_IsbL-0985_LatLon0.15_PT147H.grib2 2026-04-20 16:32 1.0M
20260420T12Z_MSC_GDPS_DewPointDepression_IsbL-1000_LatLon0.15_PT147H.grib2 2026-04-20 16:32 1.0M
20260420T12Z_MSC_GDPS_DewPointDepression_IsbL-1015_LatLon0.15_PT147H.grib2 2026-04-20 16:32 927K
20260420T12Z_MSC_GDPS_DewPoint_AGL-2m_LatLon0.15_PT147H.grib2 2026-04-20 16:32 614K
20260420T12Z_MSC_GDPS_DownwardLongwaveRadiationFlux-Accum_Sfc_LatLon0.15_PT147H.grib2 2026-04-20 16:32 844K
20260420T12Z_MSC_GDPS_DownwardShortwaveRadiationFlux-Accum_Sfc_LatLon0.15_PT147H.grib2 2026-04-20 16:32 1.0M
20260420T12Z_MSC_GDPS_FreezingRain-Accum3h_Sfc_LatLon0.15_PT147H.grib2 2026-04-20 16:32 93K
20260420T12Z_MSC_GDPS_FreezingRain-Accum_Sfc_LatLon0.15_PT147H.grib2 2026-04-20 16:32 377K
20260420T12Z_MSC_GDPS_GeopotentialHeight_IsbL-0001_LatLon0.15_PT147H.grib2 2026-04-20 16:32 401K
20260420T12Z_MSC_GDPS_GeopotentialHeight_IsbL-0005_LatLon0.15_PT147H.grib2 2026-04-20 16:32 498K
20260420T12Z_MSC_GDPS_GeopotentialHeight_IsbL-0010_LatLon0.15_PT147H.grib2 2026-04-20 16:32 485K
20260420T12Z_MSC_GDPS_GeopotentialHeight_IsbL-0020_LatLon0.15_PT147H.grib2 2026-04-20 16:32 420K
20260420T12Z_MSC_GDPS_GeopotentialHeight_IsbL-0030_LatLon0.15_PT147H.grib2 2026-04-20 16:32 577K
20260420T12Z_MSC_GDPS_GeopotentialHeight_IsbL-0050_LatLon0.15_PT147H.grib2 2026-04-20 16:32 573K
20260420T12Z_MSC_GDPS_GeopotentialHeight_IsbL-0100_LatLon0.15_PT147H.grib2 2026-04-20 16:32 609K
20260420T12Z_MSC_GDPS_GeopotentialHeight_IsbL-0150_LatLon0.15_PT147H.grib2 2026-04-20 16:32 628K
20260420T12Z_MSC_GDPS_GeopotentialHeight_IsbL-0175_LatLon0.15_PT147H.grib2 2026-04-20 16:32 631K
20260420T12Z_MSC_GDPS_GeopotentialHeight_IsbL-0200_LatLon0.15_PT147H.grib2 2026-04-20 16:32 636K
20260420T12Z_MSC_GDPS_GeopotentialHeight_IsbL-0225_LatLon0.15_PT147H.grib2 2026-04-20 16:32 640K
20260420T12Z_MSC_GDPS_GeopotentialHeight_IsbL-0250_LatLon0.15_PT147H.grib2 2026-04-20 16:32 638K
20260420T12Z_MSC_GDPS_GeopotentialHeight_IsbL-0275_LatLon0.15_PT147H.grib2 2026-04-20 16:32 640K
20260420T12Z_MSC_GDPS_GeopotentialHeight_IsbL-0300_LatLon0.15_PT147H.grib2 2026-04-20 16:32 632K
20260420T12Z_MSC_GDPS_GeopotentialHeight_IsbL-0350_LatLon0.15_PT147H.grib2 2026-04-20 16:32 631K
20260420T12Z_MSC_GDPS_GeopotentialHeight_IsbL-0400_LatLon0.15_PT147H.grib2 2026-04-20 16:32 620K
20260420T12Z_MSC_GDPS_GeopotentialHeight_IsbL-0450_LatLon0.15_PT147H.grib2 2026-04-20 16:32 540K
20260420T12Z_MSC_GDPS_GeopotentialHeight_IsbL-0500_LatLon0.15_PT147H.grib2 2026-04-20 16:32 527K
20260420T12Z_MSC_GDPS_GeopotentialHeight_IsbL-0550_LatLon0.15_PT147H.grib2 2026-04-20 16:32 521K
20260420T12Z_MSC_GDPS_GeopotentialHeight_IsbL-0600_LatLon0.15_PT147H.grib2 2026-04-20 16:32 683K
20260420T12Z_MSC_GDPS_GeopotentialHeight_IsbL-0650_LatLon0.15_PT147H.grib2 2026-04-20 16:32 683K
20260420T12Z_MSC_GDPS_GeopotentialHeight_IsbL-0700_LatLon0.15_PT147H.grib2 2026-04-20 16:32 681K
20260420T12Z_MSC_GDPS_GeopotentialHeight_IsbL-0750_LatLon0.15_PT147H.grib2 2026-04-20 16:32 686K
20260420T12Z_MSC_GDPS_GeopotentialHeight_IsbL-0800_LatLon0.15_PT147H.grib2 2026-04-20 16:32 700K
20260420T12Z_MSC_GDPS_GeopotentialHeight_IsbL-0850_LatLon0.15_PT147H.grib2 2026-04-20 16:32 710K
20260420T12Z_MSC_GDPS_GeopotentialHeight_IsbL-0875_LatLon0.15_PT147H.grib2 2026-04-20 16:32 710K
20260420T12Z_MSC_GDPS_GeopotentialHeight_IsbL-0900_LatLon0.15_PT147H.grib2 2026-04-20 16:32 718K
20260420T12Z_MSC_GDPS_GeopotentialHeight_IsbL-0925_LatLon0.15_PT147H.grib2 2026-04-20 16:32 727K
20260420T12Z_MSC_GDPS_GeopotentialHeight_IsbL-0950_LatLon0.15_PT147H.grib2 2026-04-20 16:32 731K
20260420T12Z_MSC_GDPS_GeopotentialHeight_IsbL-0970_LatLon0.15_PT147H.grib2 2026-04-20 16:32 745K
20260420T12Z_MSC_GDPS_GeopotentialHeight_IsbL-0985_LatLon0.15_PT147H.grib2 2026-04-20 16:32 763K
20260420T12Z_MSC_GDPS_GeopotentialHeight_IsbL-1000_LatLon0.15_PT147H.grib2 2026-04-20 16:32 786K
20260420T12Z_MSC_GDPS_GeopotentialHeight_IsbL-1015_LatLon0.15_PT147H.grib2 2026-04-20 16:32 810K
20260420T12Z_MSC_GDPS_Humidex_Sfc_LatLon0.15_PT147H.grib2 2026-04-20 16:32 5.3M
20260420T12Z_MSC_GDPS_IcePellets-Accum3h_Sfc_LatLon0.15_PT147H.grib2 2026-04-20 16:32 24K
20260420T12Z_MSC_GDPS_IcePellets-Accum_Sfc_LatLon0.15_PT147H.grib2 2026-04-20 16:32 142K
20260420T12Z_MSC_GDPS_KIndex_Sfc_LatLon0.15_PT147H.grib2 2026-04-20 16:32 6.5M
20260420T12Z_MSC_GDPS_LatentHeatNetFlux_Sfc_LatLon0.15_PT147H.grib2 2026-04-20 16:32 711K
20260420T12Z_MSC_GDPS_LiftedIndex-MU-VT_IsbL-0500_LatLon0.15_PT147H.grib2 2026-04-20 16:32 5.4M
20260420T12Z_MSC_GDPS_NetLongwaveRadiationFlux-Accum_Sfc_LatLon0.15_PT147H.grib2 2026-04-20 16:32 1.1M
20260420T12Z_MSC_GDPS_NetShortwaveRadiationFlux-Accum_Sfc_LatLon0.15_PT147H.grib2 2026-04-20 16:32 1.0M
20260420T12Z_MSC_GDPS_O3MixingRatio_LatLon0.15_PT147H.grib2 2026-04-20 17:06 2.3M
20260420T12Z_MSC_GDPS_O3_EAtm_LatLon0.15_PT147H.grib2 2026-04-20 17:06 2.4M
20260420T12Z_MSC_GDPS_PlanetaryBoundaryLayerHeight_Sfc_LatLon0.15_PT147H.grib2 2026-04-20 16:32 2.5M
20260420T12Z_MSC_GDPS_Precip-Accum3h_Sfc_LatLon0.15_PT147H.grib2 2026-04-20 16:32 3.6M
20260420T12Z_MSC_GDPS_Precip-Accum_Sfc_LatLon0.15_PT147H.grib2 2026-04-20 16:32 5.3M
20260420T12Z_MSC_GDPS_PrecipRate_Sfc_LatLon0.15_PT147H.grib2 2026-04-20 16:32 3.2M
20260420T12Z_MSC_GDPS_PrecipType-Instant_Sfc_LatLon0.15_PT147H.grib2 2026-04-20 16:32 1.6M
20260420T12Z_MSC_GDPS_Pressure_MSL_LatLon0.15_PT147H.grib2 2026-04-20 16:32 724K
20260420T12Z_MSC_GDPS_Pressure_PVU-1.5_LatLon0.15_PT147H.grib2 2026-04-20 16:32 5.8M
20260420T12Z_MSC_GDPS_Pressure_PVU-1_LatLon0.15_PT147H.grib2 2026-04-20 16:32 6.0M
20260420T12Z_MSC_GDPS_Pressure_PVU-2_LatLon0.15_PT147H.grib2 2026-04-20 16:32 5.6M
20260420T12Z_MSC_GDPS_Pressure_Sfc_LatLon0.15_PT147H.grib2 2026-04-20 16:32 1.1M
20260420T12Z_MSC_GDPS_RadiativeTemp_Sfc_LatLon0.15_PT147H.grib2 2026-04-20 16:32 497K
20260420T12Z_MSC_GDPS_Rain-Accum3h_Sfc_LatLon0.15_PT147H.grib2 2026-04-20 16:32 1.9M
20260420T12Z_MSC_GDPS_Rain-Accum_Sfc_LatLon0.15_PT147H.grib2 2026-04-20 16:32 4.0M
20260420T12Z_MSC_GDPS_RelativeHumidity_AGL-2m_LatLon0.15_PT147H.grib2 2026-04-20 16:32 1.1M
20260420T12Z_MSC_GDPS_RelativeHumidity_IsbL-0010_LatLon0.15_PT147H.grib2 2026-04-20 16:32 242K
20260420T12Z_MSC_GDPS_RelativeHumidity_IsbL-0020_LatLon0.15_PT147H.grib2 2026-04-20 16:32 257K
20260420T12Z_MSC_GDPS_RelativeHumidity_IsbL-0030_LatLon0.15_PT147H.grib2 2026-04-20 16:32 335K
20260420T12Z_MSC_GDPS_RelativeHumidity_IsbL-0050_LatLon0.15_PT147H.grib2 2026-04-20 16:32 411K
20260420T12Z_MSC_GDPS_RelativeHumidity_IsbL-0100_LatLon0.15_PT147H.grib2 2026-04-20 16:32 487K
20260420T12Z_MSC_GDPS_RelativeHumidity_IsbL-0150_LatLon0.15_PT147H.grib2 2026-04-20 16:32 641K
20260420T12Z_MSC_GDPS_RelativeHumidity_IsbL-0175_LatLon0.15_PT147H.grib2 2026-04-20 16:32 777K
20260420T12Z_MSC_GDPS_RelativeHumidity_IsbL-0200_LatLon0.15_PT147H.grib2 2026-04-20 16:32 698K
20260420T12Z_MSC_GDPS_RelativeHumidity_IsbL-0225_LatLon0.15_PT147H.grib2 2026-04-20 16:32 782K
20260420T12Z_MSC_GDPS_RelativeHumidity_IsbL-0250_LatLon0.15_PT147H.grib2 2026-04-20 16:32 865K
20260420T12Z_MSC_GDPS_RelativeHumidity_IsbL-0275_LatLon0.15_PT147H.grib2 2026-04-20 16:32 891K
20260420T12Z_MSC_GDPS_RelativeHumidity_IsbL-0300_LatLon0.15_PT147H.grib2 2026-04-20 16:32 941K
20260420T12Z_MSC_GDPS_RelativeHumidity_IsbL-0350_LatLon0.15_PT147H.grib2 2026-04-20 16:32 967K
20260420T12Z_MSC_GDPS_RelativeHumidity_IsbL-0400_LatLon0.15_PT147H.grib2 2026-04-20 16:32 1.0M
20260420T12Z_MSC_GDPS_RelativeHumidity_IsbL-0450_LatLon0.15_PT147H.grib2 2026-04-20 16:32 1.0M
20260420T12Z_MSC_GDPS_RelativeHumidity_IsbL-0500_LatLon0.15_PT147H.grib2 2026-04-20 16:32 1.0M
20260420T12Z_MSC_GDPS_RelativeHumidity_IsbL-0550_LatLon0.15_PT147H.grib2 2026-04-20 16:32 1.0M
20260420T12Z_MSC_GDPS_RelativeHumidity_IsbL-0600_LatLon0.15_PT147H.grib2 2026-04-20 16:32 1.1M
20260420T12Z_MSC_GDPS_RelativeHumidity_IsbL-0650_LatLon0.15_PT147H.grib2 2026-04-20 16:32 1.1M
20260420T12Z_MSC_GDPS_RelativeHumidity_IsbL-0700_LatLon0.15_PT147H.grib2 2026-04-20 16:32 1.1M
20260420T12Z_MSC_GDPS_RelativeHumidity_IsbL-0750_LatLon0.15_PT147H.grib2 2026-04-20 16:32 1.2M
20260420T12Z_MSC_GDPS_RelativeHumidity_IsbL-0800_LatLon0.15_PT147H.grib2 2026-04-20 16:32 1.2M
20260420T12Z_MSC_GDPS_RelativeHumidity_IsbL-0850_LatLon0.15_PT147H.grib2 2026-04-20 16:32 1.3M
20260420T12Z_MSC_GDPS_RelativeHumidity_IsbL-0875_LatLon0.15_PT147H.grib2 2026-04-20 16:32 1.3M
20260420T12Z_MSC_GDPS_RelativeHumidity_IsbL-0900_LatLon0.15_PT147H.grib2 2026-04-20 16:32 1.2M
20260420T12Z_MSC_GDPS_RelativeHumidity_IsbL-0925_LatLon0.15_PT147H.grib2 2026-04-20 16:32 1.2M
20260420T12Z_MSC_GDPS_RelativeHumidity_IsbL-0950_LatLon0.15_PT147H.grib2 2026-04-20 16:32 1.2M
20260420T12Z_MSC_GDPS_RelativeHumidity_IsbL-0970_LatLon0.15_PT147H.grib2 2026-04-20 16:32 1.2M
20260420T12Z_MSC_GDPS_RelativeHumidity_IsbL-0985_LatLon0.15_PT147H.grib2 2026-04-20 16:32 1.2M
20260420T12Z_MSC_GDPS_RelativeHumidity_IsbL-1000_LatLon0.15_PT147H.grib2 2026-04-20 16:32 1.1M
20260420T12Z_MSC_GDPS_RelativeHumidity_IsbL-1015_LatLon0.15_PT147H.grib2 2026-04-20 16:32 1.1M
20260420T12Z_MSC_GDPS_Runoff-Accum_Sfc_LatLon0.15_PT147H.grib2 2026-04-20 16:32 141K
20260420T12Z_MSC_GDPS_SensibleHeatNetFlux_Sfc_LatLon0.15_PT147H.grib2 2026-04-20 16:32 647K
20260420T12Z_MSC_GDPS_ShowalterIndex_IsbL-0500_LatLon0.15_PT147H.grib2 2026-04-20 16:32 6.2M
20260420T12Z_MSC_GDPS_Snow-Accum3h_Sfc_LatLon0.15_PT147H.grib2 2026-04-20 16:32 1.1M
20260420T12Z_MSC_GDPS_Snow-Accum_Sfc_LatLon0.15_PT147H.grib2 2026-04-20 16:32 2.1M
20260420T12Z_MSC_GDPS_SnowDepth_Sfc_LatLon0.15_PT147H.grib2 2026-04-20 16:32 1.8M
20260420T12Z_MSC_GDPS_SoilTemp_DBS-0to10cm_LatLon0.15_PT147H.grib2 2026-04-20 16:32 512K
20260420T12Z_MSC_GDPS_SoilTemp_Sfc_LatLon0.15_PT147H.grib2 2026-04-20 16:32 581K
20260420T12Z_MSC_GDPS_SoilVolumetricWaterContent_DBS-0to10cm_LatLon0.15_PT147H.grib2 2026-04-20 16:32 566K
20260420T12Z_MSC_GDPS_SoilVolumetricWaterContent_DBS-0to1cm_LatLon0.15_PT147H.grib2 2026-04-20 16:32 648K
20260420T12Z_MSC_GDPS_SpecificHumidity_AGL-120m_LatLon0.15_PT147H.grib2 2026-04-20 16:32 1.1M
20260420T12Z_MSC_GDPS_SpecificHumidity_AGL-2m_LatLon0.15_PT147H.grib2 2026-04-20 16:32 1.2M
20260420T12Z_MSC_GDPS_SpecificHumidity_AGL-40m_LatLon0.15_PT147H.grib2 2026-04-20 16:32 1.1M
20260420T12Z_MSC_GDPS_SpecificHumidity_AGL-80m_LatLon0.15_PT147H.grib2 2026-04-20 16:32 1.1M
20260420T12Z_MSC_GDPS_SpecificHumidity_IsbL-0001_LatLon0.15_PT147H.grib2 2026-04-20 16:32 1.1M
20260420T12Z_MSC_GDPS_SpecificHumidity_IsbL-0005_LatLon0.15_PT147H.grib2 2026-04-20 16:32 1.3M
20260420T12Z_MSC_GDPS_SpecificHumidity_IsbL-0010_LatLon0.15_PT147H.grib2 2026-04-20 16:32 1.2M
20260420T12Z_MSC_GDPS_SpecificHumidity_IsbL-0020_LatLon0.15_PT147H.grib2 2026-04-20 16:32 1.2M
20260420T12Z_MSC_GDPS_SpecificHumidity_IsbL-0030_LatLon0.15_PT147H.grib2 2026-04-20 16:32 1.5M
20260420T12Z_MSC_GDPS_SpecificHumidity_IsbL-0050_LatLon0.15_PT147H.grib2 2026-04-20 16:32 1.3M
20260420T12Z_MSC_GDPS_SpecificHumidity_IsbL-0100_LatLon0.15_PT147H.grib2 2026-04-20 16:32 1.3M
20260420T12Z_MSC_GDPS_SpecificHumidity_IsbL-0150_LatLon0.15_PT147H.grib2 2026-04-20 16:32 1.2M
20260420T12Z_MSC_GDPS_SpecificHumidity_IsbL-0175_LatLon0.15_PT147H.grib2 2026-04-20 16:32 1.3M
20260420T12Z_MSC_GDPS_SpecificHumidity_IsbL-0200_LatLon0.15_PT147H.grib2 2026-04-20 16:32 1.3M
20260420T12Z_MSC_GDPS_SpecificHumidity_IsbL-0225_LatLon0.15_PT147H.grib2 2026-04-20 16:32 1.3M
20260420T12Z_MSC_GDPS_SpecificHumidity_IsbL-0250_LatLon0.15_PT147H.grib2 2026-04-20 16:32 1.4M
20260420T12Z_MSC_GDPS_SpecificHumidity_IsbL-0275_LatLon0.15_PT147H.grib2 2026-04-20 16:32 1.3M
20260420T12Z_MSC_GDPS_SpecificHumidity_IsbL-0300_LatLon0.15_PT147H.grib2 2026-04-20 16:32 1.2M
20260420T12Z_MSC_GDPS_SpecificHumidity_IsbL-0350_LatLon0.15_PT147H.grib2 2026-04-20 16:32 1.5M
20260420T12Z_MSC_GDPS_SpecificHumidity_IsbL-0400_LatLon0.15_PT147H.grib2 2026-04-20 16:32 1.5M
20260420T12Z_MSC_GDPS_SpecificHumidity_IsbL-0450_LatLon0.15_PT147H.grib2 2026-04-20 16:32 1.6M
20260420T12Z_MSC_GDPS_SpecificHumidity_IsbL-0500_LatLon0.15_PT147H.grib2 2026-04-20 16:32 1.5M
20260420T12Z_MSC_GDPS_SpecificHumidity_IsbL-0550_LatLon0.15_PT147H.grib2 2026-04-20 16:32 1.6M
20260420T12Z_MSC_GDPS_SpecificHumidity_IsbL-0600_LatLon0.15_PT147H.grib2 2026-04-20 16:32 1.7M
20260420T12Z_MSC_GDPS_SpecificHumidity_IsbL-0650_LatLon0.15_PT147H.grib2 2026-04-20 16:32 1.5M
20260420T12Z_MSC_GDPS_SpecificHumidity_IsbL-0700_LatLon0.15_PT147H.grib2 2026-04-20 16:32 1.6M
20260420T12Z_MSC_GDPS_SpecificHumidity_IsbL-0750_LatLon0.15_PT147H.grib2 2026-04-20 16:32 1.7M
20260420T12Z_MSC_GDPS_SpecificHumidity_IsbL-0800_LatLon0.15_PT147H.grib2 2026-04-20 16:32 1.9M
20260420T12Z_MSC_GDPS_SpecificHumidity_IsbL-0850_LatLon0.15_PT147H.grib2 2026-04-20 16:32 1.9M
20260420T12Z_MSC_GDPS_SpecificHumidity_IsbL-0875_LatLon0.15_PT147H.grib2 2026-04-20 16:32 1.9M
20260420T12Z_MSC_GDPS_SpecificHumidity_IsbL-0900_LatLon0.15_PT147H.grib2 2026-04-20 16:32 1.9M
20260420T12Z_MSC_GDPS_SpecificHumidity_IsbL-0925_LatLon0.15_PT147H.grib2 2026-04-20 16:32 1.6M
20260420T12Z_MSC_GDPS_SpecificHumidity_IsbL-0950_LatLon0.15_PT147H.grib2 2026-04-20 16:32 1.6M
20260420T12Z_MSC_GDPS_SpecificHumidity_IsbL-0970_LatLon0.15_PT147H.grib2 2026-04-20 16:32 1.5M
20260420T12Z_MSC_GDPS_SpecificHumidity_IsbL-0985_LatLon0.15_PT147H.grib2 2026-04-20 16:32 1.5M
20260420T12Z_MSC_GDPS_SpecificHumidity_IsbL-1000_LatLon0.15_PT147H.grib2 2026-04-20 16:32 1.5M
20260420T12Z_MSC_GDPS_SpecificHumidity_IsbL-1015_LatLon0.15_PT147H.grib2 2026-04-20 16:32 1.5M
20260420T12Z_MSC_GDPS_SpecificHumidity_Sfc_LatLon0.15_PT147H.grib2 2026-04-20 16:32 677K
20260420T12Z_MSC_GDPS_Thickness_IsbL-0850to0700_LatLon0.15_PT147H.grib2 2026-04-20 16:32 465K
20260420T12Z_MSC_GDPS_Thickness_IsbL-1000to0500_LatLon0.15_PT147H.grib2 2026-04-20 16:32 370K
20260420T12Z_MSC_GDPS_Thickness_IsbL-1000to0850_LatLon0.15_PT147H.grib2 2026-04-20 16:32 487K
20260420T12Z_MSC_GDPS_TotalCloudCover_Sfc_LatLon0.15_PT147H.grib2 2026-04-20 16:32 850K
20260420T12Z_MSC_GDPS_TotalTotalsIndex_Sfc_LatLon0.15_PT147H.grib2 2026-04-20 16:32 6.2M
20260420T12Z_MSC_GDPS_UVIndex-ClearSky_Sfc_LatLon0.15_PT147H.grib2 2026-04-20 17:06 1.0M
20260420T12Z_MSC_GDPS_UVIndex_Sfc_LatLon0.15_PT147H.grib2 2026-04-20 17:06 1.5M
20260420T12Z_MSC_GDPS_UpwardLongwaveRadiationFlux_NTAtm_LatLon0.15_PT147H.grib2 2026-04-20 16:32 845K
20260420T12Z_MSC_GDPS_VerticalVelocity_IsbL-0500_LatLon0.15_PT147H.grib2 2026-04-20 16:32 1.3M
20260420T12Z_MSC_GDPS_VerticalVelocity_IsbL-0700_LatLon0.15_PT147H.grib2 2026-04-20 16:32 1.1M
20260420T12Z_MSC_GDPS_VerticalVelocity_IsbL-0850_LatLon0.15_PT147H.grib2 2026-04-20 16:32 1.6M
20260420T12Z_MSC_GDPS_WindChill_Sfc_LatLon0.15_PT147H.grib2 2026-04-20 16:32 5.3M
20260420T12Z_MSC_GDPS_WindDir_AGL-10m_LatLon0.15_PT147H.grib2 2026-04-20 16:32 1.3M
20260420T12Z_MSC_GDPS_WindDir_AGL-120m_LatLon0.15_PT147H.grib2 2026-04-20 16:32 1.4M
20260420T12Z_MSC_GDPS_WindDir_AGL-40m_LatLon0.15_PT147H.grib2 2026-04-20 16:32 1.4M
20260420T12Z_MSC_GDPS_WindDir_AGL-80m_LatLon0.15_PT147H.grib2 2026-04-20 16:32 1.4M
20260420T12Z_MSC_GDPS_WindDir_IsbL-0001_LatLon0.15_PT147H.grib2 2026-04-20 16:32 655K
20260420T12Z_MSC_GDPS_WindDir_IsbL-0005_LatLon0.15_PT147H.grib2 2026-04-20 16:32 794K
20260420T12Z_MSC_GDPS_WindDir_IsbL-0010_LatLon0.15_PT147H.grib2 2026-04-20 16:32 848K
20260420T12Z_MSC_GDPS_WindDir_IsbL-0020_LatLon0.15_PT147H.grib2 2026-04-20 16:32 932K
20260420T12Z_MSC_GDPS_WindDir_IsbL-0030_LatLon0.15_PT147H.grib2 2026-04-20 16:32 917K
20260420T12Z_MSC_GDPS_WindDir_IsbL-0050_LatLon0.15_PT147H.grib2 2026-04-20 16:32 949K
20260420T12Z_MSC_GDPS_WindDir_IsbL-0100_LatLon0.15_PT147H.grib2 2026-04-20 16:32 1.0M
20260420T12Z_MSC_GDPS_WindDir_IsbL-0150_LatLon0.15_PT147H.grib2 2026-04-20 16:32 1.0M
20260420T12Z_MSC_GDPS_WindDir_IsbL-0175_LatLon0.15_PT147H.grib2 2026-04-20 16:32 1.0M
20260420T12Z_MSC_GDPS_WindDir_IsbL-0200_LatLon0.15_PT147H.grib2 2026-04-20 16:32 1.1M
20260420T12Z_MSC_GDPS_WindDir_IsbL-0225_LatLon0.15_PT147H.grib2 2026-04-20 16:32 1.1M
20260420T12Z_MSC_GDPS_WindDir_IsbL-0250_LatLon0.15_PT147H.grib2 2026-04-20 16:32 1.1M
20260420T12Z_MSC_GDPS_WindDir_IsbL-0275_LatLon0.15_PT147H.grib2 2026-04-20 16:32 1.2M
20260420T12Z_MSC_GDPS_WindDir_IsbL-0300_LatLon0.15_PT147H.grib2 2026-04-20 16:32 1.2M
20260420T12Z_MSC_GDPS_WindDir_IsbL-0350_LatLon0.15_PT147H.grib2 2026-04-20 16:32 1.2M
20260420T12Z_MSC_GDPS_WindDir_IsbL-0400_LatLon0.15_PT147H.grib2 2026-04-20 16:32 1.3M
20260420T12Z_MSC_GDPS_WindDir_IsbL-0450_LatLon0.15_PT147H.grib2 2026-04-20 16:32 1.3M
20260420T12Z_MSC_GDPS_WindDir_IsbL-0500_LatLon0.15_PT147H.grib2 2026-04-20 16:32 1.4M
20260420T12Z_MSC_GDPS_WindDir_IsbL-0550_LatLon0.15_PT147H.grib2 2026-04-20 16:32 1.4M
20260420T12Z_MSC_GDPS_WindDir_IsbL-0600_LatLon0.15_PT147H.grib2 2026-04-20 16:32 1.5M
20260420T12Z_MSC_GDPS_WindDir_IsbL-0650_LatLon0.15_PT147H.grib2 2026-04-20 16:32 1.6M
20260420T12Z_MSC_GDPS_WindDir_IsbL-0700_LatLon0.15_PT147H.grib2 2026-04-20 16:32 1.7M
20260420T12Z_MSC_GDPS_WindDir_IsbL-0750_LatLon0.15_PT147H.grib2 2026-04-20 16:32 1.7M
20260420T12Z_MSC_GDPS_WindDir_IsbL-0800_LatLon0.15_PT147H.grib2 2026-04-20 16:32 1.9M
20260420T12Z_MSC_GDPS_WindDir_IsbL-0850_LatLon0.15_PT147H.grib2 2026-04-20 16:32 2.0M
20260420T12Z_MSC_GDPS_WindDir_IsbL-0875_LatLon0.15_PT147H.grib2 2026-04-20 16:32 2.0M
20260420T12Z_MSC_GDPS_WindDir_IsbL-0900_LatLon0.15_PT147H.grib2 2026-04-20 16:32 2.0M
20260420T12Z_MSC_GDPS_WindDir_IsbL-0925_LatLon0.15_PT147H.grib2 2026-04-20 16:32 2.0M
20260420T12Z_MSC_GDPS_WindDir_IsbL-0950_LatLon0.15_PT147H.grib2 2026-04-20 16:32 2.0M
20260420T12Z_MSC_GDPS_WindDir_IsbL-0970_LatLon0.15_PT147H.grib2 2026-04-20 16:32 2.0M
20260420T12Z_MSC_GDPS_WindDir_IsbL-0985_LatLon0.15_PT147H.grib2 2026-04-20 16:32 2.0M
20260420T12Z_MSC_GDPS_WindDir_IsbL-1000_LatLon0.15_PT147H.grib2 2026-04-20 16:32 2.1M
20260420T12Z_MSC_GDPS_WindDir_IsbL-1015_LatLon0.15_PT147H.grib2 2026-04-20 16:32 2.1M
20260420T12Z_MSC_GDPS_WindGust-Max_AGL-10m_LatLon0.15_PT147H.grib2 2026-04-20 16:32 2.3M
20260420T12Z_MSC_GDPS_WindGust-Min_AGL-10m_LatLon0.15_PT147H.grib2 2026-04-20 16:32 2.2M
20260420T12Z_MSC_GDPS_WindGust_AGL-10m_LatLon0.15_PT147H.grib2 2026-04-20 16:32 2.2M
20260420T12Z_MSC_GDPS_WindSpeed_AGL-10m_LatLon0.15_PT147H.grib2 2026-04-20 16:32 1.1M
20260420T12Z_MSC_GDPS_WindSpeed_AGL-120m_LatLon0.15_PT147H.grib2 2026-04-20 16:32 1.2M
20260420T12Z_MSC_GDPS_WindSpeed_AGL-40m_LatLon0.15_PT147H.grib2 2026-04-20 16:32 1.2M
20260420T12Z_MSC_GDPS_WindSpeed_AGL-80m_LatLon0.15_PT147H.grib2 2026-04-20 16:32 1.2M
20260420T12Z_MSC_GDPS_WindSpeed_IsbL-0001_LatLon0.15_PT147H.grib2 2026-04-20 16:32 635K
20260420T12Z_MSC_GDPS_WindSpeed_IsbL-0005_LatLon0.15_PT147H.grib2 2026-04-20 16:32 605K
20260420T12Z_MSC_GDPS_WindSpeed_IsbL-0010_LatLon0.15_PT147H.grib2 2026-04-20 16:32 620K
20260420T12Z_MSC_GDPS_WindSpeed_IsbL-0020_LatLon0.15_PT147H.grib2 2026-04-20 16:32 850K
20260420T12Z_MSC_GDPS_WindSpeed_IsbL-0030_LatLon0.15_PT147H.grib2 2026-04-20 16:32 847K
20260420T12Z_MSC_GDPS_WindSpeed_IsbL-0050_LatLon0.15_PT147H.grib2 2026-04-20 16:32 1.0M
20260420T12Z_MSC_GDPS_WindSpeed_IsbL-0100_LatLon0.15_PT147H.grib2 2026-04-20 16:32 1.1M
20260420T12Z_MSC_GDPS_WindSpeed_IsbL-0150_LatLon0.15_PT147H.grib2 2026-04-20 16:32 1.0M
20260420T12Z_MSC_GDPS_WindSpeed_IsbL-0175_LatLon0.15_PT147H.grib2 2026-04-20 16:32 1.0M
20260420T12Z_MSC_GDPS_WindSpeed_IsbL-0200_LatLon0.15_PT147H.grib2 2026-04-20 16:32 1.0M
20260420T12Z_MSC_GDPS_WindSpeed_IsbL-0225_LatLon0.15_PT147H.grib2 2026-04-20 16:32 1.1M
20260420T12Z_MSC_GDPS_WindSpeed_IsbL-0250_LatLon0.15_PT147H.grib2 2026-04-20 16:32 1.1M
20260420T12Z_MSC_GDPS_WindSpeed_IsbL-0275_LatLon0.15_PT147H.grib2 2026-04-20 16:32 1.1M
20260420T12Z_MSC_GDPS_WindSpeed_IsbL-0300_LatLon0.15_PT147H.grib2 2026-04-20 16:32 1.1M
20260420T12Z_MSC_GDPS_WindSpeed_IsbL-0350_LatLon0.15_PT147H.grib2 2026-04-20 16:32 1.1M
20260420T12Z_MSC_GDPS_WindSpeed_IsbL-0400_LatLon0.15_PT147H.grib2 2026-04-20 16:32 1.1M
20260420T12Z_MSC_GDPS_WindSpeed_IsbL-0450_LatLon0.15_PT147H.grib2 2026-04-20 16:32 1.1M
20260420T12Z_MSC_GDPS_WindSpeed_IsbL-0500_LatLon0.15_PT147H.grib2 2026-04-20 16:32 1.1M
20260420T12Z_MSC_GDPS_WindSpeed_IsbL-0550_LatLon0.15_PT147H.grib2 2026-04-20 16:32 1.1M
20260420T12Z_MSC_GDPS_WindSpeed_IsbL-0600_LatLon0.15_PT147H.grib2 2026-04-20 16:32 1.1M
20260420T12Z_MSC_GDPS_WindSpeed_IsbL-0650_LatLon0.15_PT147H.grib2 2026-04-20 16:32 1.4M
20260420T12Z_MSC_GDPS_WindSpeed_IsbL-0700_LatLon0.15_PT147H.grib2 2026-04-20 16:32 1.5M
20260420T12Z_MSC_GDPS_WindSpeed_IsbL-0750_LatLon0.15_PT147H.grib2 2026-04-20 16:32 1.7M
20260420T12Z_MSC_GDPS_WindSpeed_IsbL-0800_LatLon0.15_PT147H.grib2 2026-04-20 16:32 1.8M
20260420T12Z_MSC_GDPS_WindSpeed_IsbL-0850_LatLon0.15_PT147H.grib2 2026-04-20 16:32 1.9M
20260420T12Z_MSC_GDPS_WindSpeed_IsbL-0875_LatLon0.15_PT147H.grib2 2026-04-20 16:32 1.9M
20260420T12Z_MSC_GDPS_WindSpeed_IsbL-0900_LatLon0.15_PT147H.grib2 2026-04-20 16:32 1.9M
20260420T12Z_MSC_GDPS_WindSpeed_IsbL-0925_LatLon0.15_PT147H.grib2 2026-04-20 16:32 1.9M
20260420T12Z_MSC_GDPS_WindSpeed_IsbL-0950_LatLon0.15_PT147H.grib2 2026-04-20 16:32 1.9M
20260420T12Z_MSC_GDPS_WindSpeed_IsbL-0970_LatLon0.15_PT147H.grib2 2026-04-20 16:32 1.9M
20260420T12Z_MSC_GDPS_WindSpeed_IsbL-0985_LatLon0.15_PT147H.grib2 2026-04-20 16:32 1.9M
20260420T12Z_MSC_GDPS_WindSpeed_IsbL-1000_LatLon0.15_PT147H.grib2 2026-04-20 16:32 1.9M
20260420T12Z_MSC_GDPS_WindSpeed_IsbL-1015_LatLon0.15_PT147H.grib2 2026-04-20 16:32 1.8M
20260420T12Z_MSC_GDPS_WindU_AGL-10m_LatLon0.15_PT147H.grib2 2026-04-20 16:32 1.6M
20260420T12Z_MSC_GDPS_WindU_AGL-120m_LatLon0.15_PT147H.grib2 2026-04-20 16:32 1.0M
20260420T12Z_MSC_GDPS_WindU_AGL-40m_LatLon0.15_PT147H.grib2 2026-04-20 16:32 1.0M
20260420T12Z_MSC_GDPS_WindU_AGL-80m_LatLon0.15_PT147H.grib2 2026-04-20 16:32 1.0M
20260420T12Z_MSC_GDPS_WindU_IsbL-0001_LatLon0.15_PT147H.grib2 2026-04-20 16:32 498K
20260420T12Z_MSC_GDPS_WindU_IsbL-0005_LatLon0.15_PT147H.grib2 2026-04-20 16:32 686K
20260420T12Z_MSC_GDPS_WindU_IsbL-0010_LatLon0.15_PT147H.grib2 2026-04-20 16:32 695K
20260420T12Z_MSC_GDPS_WindU_IsbL-0020_LatLon0.15_PT147H.grib2 2026-04-20 16:32 651K
20260420T12Z_MSC_GDPS_WindU_IsbL-0030_LatLon0.15_PT147H.grib2 2026-04-20 16:32 728K
20260420T12Z_MSC_GDPS_WindU_IsbL-0050_LatLon0.15_PT147H.grib2 2026-04-20 16:32 690K
20260420T12Z_MSC_GDPS_WindU_IsbL-0100_LatLon0.15_PT147H.grib2 2026-04-20 16:32 903K
20260420T12Z_MSC_GDPS_WindU_IsbL-0150_LatLon0.15_PT147H.grib2 2026-04-20 16:32 1.0M
20260420T12Z_MSC_GDPS_WindU_IsbL-0175_LatLon0.15_PT147H.grib2 2026-04-20 16:32 1.0M
20260420T12Z_MSC_GDPS_WindU_IsbL-0200_LatLon0.15_PT147H.grib2 2026-04-20 16:32 835K
20260420T12Z_MSC_GDPS_WindU_IsbL-0225_LatLon0.15_PT147H.grib2 2026-04-20 16:32 846K
20260420T12Z_MSC_GDPS_WindU_IsbL-0250_LatLon0.15_PT147H.grib2 2026-04-20 16:32 849K
20260420T12Z_MSC_GDPS_WindU_IsbL-0275_LatLon0.15_PT147H.grib2 2026-04-20 16:32 877K
20260420T12Z_MSC_GDPS_WindU_IsbL-0300_LatLon0.15_PT147H.grib2 2026-04-20 16:32 871K
20260420T12Z_MSC_GDPS_WindU_IsbL-0350_LatLon0.15_PT147H.grib2 2026-04-20 16:32 887K
20260420T12Z_MSC_GDPS_WindU_IsbL-0400_LatLon0.15_PT147H.grib2 2026-04-20 16:32 1.1M
20260420T12Z_MSC_GDPS_WindU_IsbL-0450_LatLon0.15_PT147H.grib2 2026-04-20 16:32 1.1M
20260420T12Z_MSC_GDPS_WindU_IsbL-0500_LatLon0.15_PT147H.grib2 2026-04-20 16:32 1.1M
20260420T12Z_MSC_GDPS_WindU_IsbL-0550_LatLon0.15_PT147H.grib2 2026-04-20 16:32 1.1M
20260420T12Z_MSC_GDPS_WindU_IsbL-0600_LatLon0.15_PT147H.grib2 2026-04-20 16:32 1.1M
20260420T12Z_MSC_GDPS_WindU_IsbL-0650_LatLon0.15_PT147H.grib2 2026-04-20 16:32 1.2M
20260420T12Z_MSC_GDPS_WindU_IsbL-0700_LatLon0.15_PT147H.grib2 2026-04-20 16:32 1.2M
20260420T12Z_MSC_GDPS_WindU_IsbL-0750_LatLon0.15_PT147H.grib2 2026-04-20 16:32 1.3M
20260420T12Z_MSC_GDPS_WindU_IsbL-0800_LatLon0.15_PT147H.grib2 2026-04-20 16:32 1.4M
20260420T12Z_MSC_GDPS_WindU_IsbL-0850_LatLon0.15_PT147H.grib2 2026-04-20 16:32 1.4M
20260420T12Z_MSC_GDPS_WindU_IsbL-0875_LatLon0.15_PT147H.grib2 2026-04-20 16:32 1.5M
20260420T12Z_MSC_GDPS_WindU_IsbL-0900_LatLon0.15_PT147H.grib2 2026-04-20 16:32 1.5M
20260420T12Z_MSC_GDPS_WindU_IsbL-0925_LatLon0.15_PT147H.grib2 2026-04-20 16:32 1.4M
20260420T12Z_MSC_GDPS_WindU_IsbL-0950_LatLon0.15_PT147H.grib2 2026-04-20 16:32 1.4M
20260420T12Z_MSC_GDPS_WindU_IsbL-0970_LatLon0.15_PT147H.grib2 2026-04-20 16:32 1.4M
20260420T12Z_MSC_GDPS_WindU_IsbL-0985_LatLon0.15_PT147H.grib2 2026-04-20 16:32 1.4M
20260420T12Z_MSC_GDPS_WindU_IsbL-1000_LatLon0.15_PT147H.grib2 2026-04-20 16:32 1.7M
20260420T12Z_MSC_GDPS_WindU_IsbL-1015_LatLon0.15_PT147H.grib2 2026-04-20 16:32 1.7M
20260420T12Z_MSC_GDPS_WindV_AGL-10m_LatLon0.15_PT147H.grib2 2026-04-20 16:32 1.6M
20260420T12Z_MSC_GDPS_WindV_AGL-120m_LatLon0.15_PT147H.grib2 2026-04-20 16:32 1.0M
20260420T12Z_MSC_GDPS_WindV_AGL-40m_LatLon0.15_PT147H.grib2 2026-04-20 16:32 1.2M
20260420T12Z_MSC_GDPS_WindV_AGL-80m_LatLon0.15_PT147H.grib2 2026-04-20 16:32 1.2M
20260420T12Z_MSC_GDPS_WindV_IsbL-0001_LatLon0.15_PT147H.grib2 2026-04-20 16:32 702K
20260420T12Z_MSC_GDPS_WindV_IsbL-0005_LatLon0.15_PT147H.grib2 2026-04-20 16:32 778K
20260420T12Z_MSC_GDPS_WindV_IsbL-0010_LatLon0.15_PT147H.grib2 2026-04-20 16:32 876K
20260420T12Z_MSC_GDPS_WindV_IsbL-0020_LatLon0.15_PT147H.grib2 2026-04-20 16:32 928K
20260420T12Z_MSC_GDPS_WindV_IsbL-0030_LatLon0.15_PT147H.grib2 2026-04-20 16:32 839K
20260420T12Z_MSC_GDPS_WindV_IsbL-0050_LatLon0.15_PT147H.grib2 2026-04-20 16:32 893K
20260420T12Z_MSC_GDPS_WindV_IsbL-0100_LatLon0.15_PT147H.grib2 2026-04-20 16:32 1.0M
20260420T12Z_MSC_GDPS_WindV_IsbL-0150_LatLon0.15_PT147H.grib2 2026-04-20 16:32 1.0M
20260420T12Z_MSC_GDPS_WindV_IsbL-0175_LatLon0.15_PT147H.grib2 2026-04-20 16:32 1.0M
20260420T12Z_MSC_GDPS_WindV_IsbL-0200_LatLon0.15_PT147H.grib2 2026-04-20 16:32 833K
20260420T12Z_MSC_GDPS_WindV_IsbL-0225_LatLon0.15_PT147H.grib2 2026-04-20 16:32 844K
20260420T12Z_MSC_GDPS_WindV_IsbL-0250_LatLon0.15_PT147H.grib2 2026-04-20 16:32 845K
20260420T12Z_MSC_GDPS_WindV_IsbL-0275_LatLon0.15_PT147H.grib2 2026-04-20 16:32 871K
20260420T12Z_MSC_GDPS_WindV_IsbL-0300_LatLon0.15_PT147H.grib2 2026-04-20 16:32 862K
20260420T12Z_MSC_GDPS_WindV_IsbL-0350_LatLon0.15_PT147H.grib2 2026-04-20 16:32 876K
20260420T12Z_MSC_GDPS_WindV_IsbL-0400_LatLon0.15_PT147H.grib2 2026-04-20 16:32 877K
20260420T12Z_MSC_GDPS_WindV_IsbL-0450_LatLon0.15_PT147H.grib2 2026-04-20 16:32 1.1M
20260420T12Z_MSC_GDPS_WindV_IsbL-0500_LatLon0.15_PT147H.grib2 2026-04-20 16:32 1.1M
20260420T12Z_MSC_GDPS_WindV_IsbL-0550_LatLon0.15_PT147H.grib2 2026-04-20 16:32 1.1M
20260420T12Z_MSC_GDPS_WindV_IsbL-0600_LatLon0.15_PT147H.grib2 2026-04-20 16:32 1.1M
20260420T12Z_MSC_GDPS_WindV_IsbL-0650_LatLon0.15_PT147H.grib2 2026-04-20 16:32 1.2M
20260420T12Z_MSC_GDPS_WindV_IsbL-0700_LatLon0.15_PT147H.grib2 2026-04-20 16:32 1.2M
20260420T12Z_MSC_GDPS_WindV_IsbL-0750_LatLon0.15_PT147H.grib2 2026-04-20 16:32 1.3M
20260420T12Z_MSC_GDPS_WindV_IsbL-0800_LatLon0.15_PT147H.grib2 2026-04-20 16:32 1.3M
20260420T12Z_MSC_GDPS_WindV_IsbL-0850_LatLon0.15_PT147H.grib2 2026-04-20 16:32 1.4M
20260420T12Z_MSC_GDPS_WindV_IsbL-0875_LatLon0.15_PT147H.grib2 2026-04-20 16:32 1.4M
20260420T12Z_MSC_GDPS_WindV_IsbL-0900_LatLon0.15_PT147H.grib2 2026-04-20 16:32 1.4M
20260420T12Z_MSC_GDPS_WindV_IsbL-0925_LatLon0.15_PT147H.grib2 2026-04-20 16:32 1.4M
20260420T12Z_MSC_GDPS_WindV_IsbL-0950_LatLon0.15_PT147H.grib2 2026-04-20 16:32 1.4M
20260420T12Z_MSC_GDPS_WindV_IsbL-0970_LatLon0.15_PT147H.grib2 2026-04-20 16:32 1.4M
20260420T12Z_MSC_GDPS_WindV_IsbL-0985_LatLon0.15_PT147H.grib2 2026-04-20 16:32 1.7M
20260420T12Z_MSC_GDPS_WindV_IsbL-1000_LatLon0.15_PT147H.grib2 2026-04-20 16:32 1.7M
20260420T12Z_MSC_GDPS_WindV_IsbL-1015_LatLon0.15_PT147H.grib2 2026-04-20 16:32 1.7M